Weather History for Melfa, VA

Change the Weather History Date:

Friday, November 25, 2011

  Actual Average (KWAL) Record (KWAL)
Temperature  
Mean Temperature 52 °F 47 °F  
Max Temperature 66 °F 55 °F 76 °F (1973)
Min Temperature 39 °F 38 °F 23 °F (1970)
Degree Days  
Heating Degree Days 12    
Month to date heating degree days  
Since 1 July heating degree days  
Cooling Degree Days 0    
Month to date cooling degree days  
Year to date cooling degree days  
Growing Degree Days 2 (Base 50)    
Moisture  
Dew Point 41 °F    
Average Humidity 73    
Maximum Humidity 93    
Minimum Humidity 43    
Precipitation  
Precipitation 0.00 in 0.09 in 0.54 in (2008)
Month to date precipitation 2.36  
Year to date precipitation 36.90  
Sea Level Pressure  
Sea Level Pressure 30.27 in    
Wind  
Wind Speed 6 mph (SW)    
Max Wind Speed 9 mph    
Max Gust Speed -    
Visibility 10 miles    
Events      
T = Trace of Precipitation, MM = Missing Value Source: NWS Daily Summary

Daily Weather History Graph

Daily Weather History Graph

Search for Another Location

Airport:

Trip Planner

Search our weather history database for the weather conditions in past years. The results will help you decide how hot, cold, wet, or windy it might be!

Date:

Astronomy

Nov. 25, 2011 Rise Set
Actual Time 6:53 AM EST 4:46 PM EST
Civil Twilight 6:24 AM EST 5:15 PM EST
Nautical Twilight 5:52 AM EST 5:47 PM EST
Astronomical Twilight 5:21 AM EST 6:18 PM EST
Moon 7:17 AM EST (11/25) 5:13 PM EST (11/25)
Length of Visible Light 10h 50m
Length of Day
9h 53m
New Moon, 0% of the Moon is Illuminated
Nov 25
New Moon
Dec 2
First Quarter
Dec 10
Full
Dec 17
Last Quarter
Dec 24
New

Hourly Weather History & Observations

Time (EST) Temp. Windchill Dew Point Humidity Pressure Visibility Wind Dir Wind Speed Gust Speed Precip Events Conditions
12:15 AM 41.0 °F 37.1 °F 39.2 °F 93% 30.29 in 10.0 mi West 5.8 mph - N/A   Clear
12:35 AM 41.0 °F 38.0 °F 39.2 °F 93% 30.28 in 10.0 mi WSW 4.6 mph - N/A   Clear
12:55 AM 41.0 °F 38.0 °F 39.2 °F 93% 30.28 in 10.0 mi WSW 4.6 mph - N/A   Clear
1:15 AM 41.0 °F 38.0 °F 39.2 °F 93% 30.27 in 10.0 mi WSW 4.6 mph - N/A   Clear
1:55 AM 42.8 °F 39.3 °F 39.2 °F 87% 30.29 in 10.0 mi WSW 5.8 mph - N/A   Clear
2:15 AM 42.8 °F 39.3 °F 39.2 °F 87% 30.29 in 10.0 mi WSW 5.8 mph - N/A   Clear
2:35 AM 42.8 °F 39.3 °F 39.2 °F 87% 30.29 in 10.0 mi WSW 5.8 mph - N/A   Clear
2:55 AM 42.8 °F 39.3 °F 39.2 °F 87% 30.29 in 10.0 mi WSW 5.8 mph - N/A   Clear
3:15 AM 39.2 °F 35.0 °F 37.4 °F 93% 30.29 in 10.0 mi WSW 5.8 mph - N/A   Clear
3:35 AM 42.8 °F 39.3 °F 39.2 °F 87% 30.29 in 10.0 mi WSW 5.8 mph - N/A   Clear
3:55 AM 42.8 °F 39.3 °F 39.2 °F 87% 30.29 in 10.0 mi WSW 5.8 mph - N/A   Clear
4:15 AM 41.0 °F 37.1 °F 39.2 °F 93% 30.29 in 10.0 mi WSW 5.8 mph - N/A   Clear
4:35 AM 39.2 °F 35.0 °F 37.4 °F 93% 30.29 in 10.0 mi SW 5.8 mph - N/A   Clear
5:35 AM 42.8 °F 39.3 °F 39.2 °F 87% 30.29 in 10.0 mi SW 5.8 mph - N/A   Clear
6:15 AM 39.2 °F 35.9 °F 37.4 °F 93% 30.31 in 10.0 mi WSW 4.6 mph - N/A   Clear
6:35 AM 39.2 °F 37.0 °F 37.4 °F 93% 30.31 in 10.0 mi SW 3.5 mph - N/A   Clear
6:55 AM 39.2 °F 37.0 °F 37.4 °F 93% 30.32 in 10.0 mi SW 3.5 mph - N/A   Clear
7:15 AM 39.2 °F 35.9 °F 37.4 °F 93% 30.31 in 10.0 mi SW 4.6 mph - N/A   Clear
7:35 AM 39.2 °F 35.0 °F 37.4 °F 93% 30.31 in 10.0 mi SW 5.8 mph - N/A   Clear
7:55 AM 44.6 °F 41.4 °F 41.0 °F 87% 30.31 in 10.0 mi SW 5.8 mph - N/A   Clear
8:15 AM 46.4 °F 44.3 °F 42.8 °F 87% 30.31 in 10.0 mi SW 4.6 mph - N/A   Clear
8:55 AM 51.8 °F - 44.6 °F 76% 30.31 in 10.0 mi SW 4.6 mph - N/A   Clear
9:15 AM 53.6 °F - 44.6 °F 72% 30.31 in 10.0 mi SW 6.9 mph - N/A   Clear
9:35 AM 55.4 °F - 44.6 °F 67% 30.31 in 10.0 mi SW 6.9 mph - N/A   Clear
9:55 AM 57.2 °F - 46.4 °F 67% 30.31 in 10.0 mi SW 5.8 mph - N/A   Clear
10:15 AM 59.0 °F - 44.6 °F 59% 30.31 in 10.0 mi SW 5.8 mph - N/A   Clear
10:35 AM 60.8 °F - 44.6 °F 55% 30.30 in 10.0 mi SW 4.6 mph - N/A   Clear
11:15 AM 64.4 °F - 44.6 °F 49% 30.28 in 10.0 mi WSW 5.8 mph - N/A   Clear
11:55 AM 64.4 °F - 42.8 °F 45% 30.26 in 10.0 mi WSW 9.2 mph - N/A   Clear
12:35 PM 64.4 °F - 42.8 °F 45% 30.25 in 10.0 mi West 8.1 mph - N/A   Clear
12:55 PM 64.4 °F - 42.8 °F 45% 30.24 in 10.0 mi WSW 6.9 mph - N/A   Clear
1:15 PM 66.2 °F - 44.6 °F 46% 30.24 in 10.0 mi WSW 6.9 mph - N/A   Clear
1:35 PM 66.2 °F - 42.8 °F 43% 30.23 in 10.0 mi SW 8.1 mph - N/A   Clear
1:55 PM 64.4 °F - 42.8 °F 45% 30.23 in 10.0 mi SW 8.1 mph - N/A   Clear
2:15 PM 64.4 °F - 42.8 °F 45% 30.23 in 10.0 mi SW 8.1 mph - N/A   Clear
2:35 PM 64.4 °F - 42.8 °F 45% 30.22 in 10.0 mi WSW 5.8 mph - N/A   Clear
2:55 PM 64.4 °F - 42.8 °F 45% 30.22 in 10.0 mi SW 8.1 mph - N/A   Clear
3:15 PM 64.4 °F - 42.8 °F 45% 30.22 in 10.0 mi SW 6.9 mph - N/A   Clear
3:35 PM 64.4 °F - 42.8 °F 45% 30.22 in 10.0 mi SSW 5.8 mph - N/A   Clear
4:15 PM 60.8 °F - 42.8 °F 52% 30.22 in 10.0 mi SSW 4.6 mph - N/A   Clear
4:35 PM 57.2 °F - 42.8 °F 59% 30.21 in 10.0 mi SSW 5.8 mph - N/A   Clear
4:55 PM 55.4 °F - 42.8 °F 63% 30.21 in 10.0 mi SSW 4.6 mph - N/A   Clear
5:15 PM 51.8 °F - 42.8 °F 71% 30.22 in 10.0 mi South 3.5 mph - N/A   Clear
6:15 PM 46.4 °F 44.3 °F 42.8 °F 87% 30.22 in 10.0 mi South 4.6 mph - N/A   Clear
6:35 PM 46.4 °F 45.2 °F 41.0 °F 81% 30.23 in 10.0 mi South 3.5 mph - N/A   Clear
6:55 PM 46.4 °F 43.5 °F 41.0 °F 81% 30.23 in 10.0 mi South 5.8 mph - N/A   Clear
7:15 PM 46.4 °F 43.5 °F 41.0 °F 81% 30.23 in 10.0 mi SSW 5.8 mph - N/A   Clear
7:35 PM 48.2 °F - 42.8 °F 82% 30.23 in 10.0 mi SSW 6.9 mph - N/A   Clear
7:55 PM 46.4 °F 44.3 °F 41.0 °F 81% 30.23 in 10.0 mi SW 4.6 mph - N/A   Clear
8:35 PM 48.2 °F - 41.0 °F 76% 30.23 in 10.0 mi SW 6.9 mph - N/A   Clear
8:55 PM 50.0 °F - 41.0 °F 71% 30.24 in 10.0 mi SW 8.1 mph - N/A   Clear
9:15 PM 51.8 °F - 41.0 °F 67% 30.24 in 10.0 mi SW 8.1 mph - N/A   Clear
9:35 PM 51.8 °F - 41.0 °F 67% 30.24 in 10.0 mi SW 5.8 mph - N/A   Clear
9:55 PM 53.6 °F - 41.0 °F 62% 30.24 in 10.0 mi SW 6.9 mph - N/A   Clear
10:15 PM 53.6 °F - 41.0 °F 62% 30.24 in 10.0 mi SW 8.1 mph - N/A   Clear
10:35 PM 53.6 °F - 41.0 °F 62% 30.24 in 10.0 mi SW 8.1 mph - N/A   Clear
10:55 PM 51.8 °F - 41.0 °F 67% 30.25 in 10.0 mi SW 5.8 mph - N/A   Clear
11:15 PM 51.8 °F - 39.2 °F 62% 30.24 in 10.0 mi SW 6.9 mph - N/A   Clear
11:35 PM 53.6 °F - 39.2 °F 58% 30.24 in 10.0 mi SW 8.1 mph - N/A   Clear
11:55 PM 51.8 °F - 39.2 °F 62% 30.24 in 10.0 mi SW 8.1 mph - N/A   Clear